Miscellaneous Local Product
Issued by NWS North Platte, NE

Home | Current Version | Previous Version | Graphics & Text | Print | Product List | Glossary On
Versions: 1 2 3 4 5 6 7 8 9 10 11 12 13 14 15 16 17 18 19 20 21 22 23 24 25 26 27 28 29 30 31 32 33 34 35 36 37 38 39 40 41 42 43 44 45 46 47 48 49 50
000
AXUS43 KLBF 220010
MISLBF


WESTERN AND NORTH CENTRAL NEBRASKA HOURLY WEATHER ROUNDUP
NATIONAL WEATHER SERVICE NORTH PLATTE NE
700 PM CDT SUN SEP 21 2014

***STATIONS NOT REPORTING VARIABLES SUCH AS SKY/WEATHER OR
PRESSURE ARE PROVIDED BY THE NEBRASKA DEPARTMENT OF
ROADS...RAWS...AND APRS NETWORKS...AND ARE NOT UNDER
NATIONAL WEATHER SERVICE QUALITY CONTROL***

...OBSERVATIONS IN AND NEAR THE EASTERN PANHANDLE OF NEBRASKA...

CITY           SKY/WX    TMP DP  RH WIND       PRES   REMARKS
PINE RIDGE     CLEAR     70  42  36 E6        30.27S
CHADRON        PTCLDY    71  41  33 E8        30.24F
ALLIANCE       CLOUDY    71  40  32 S8        30.28R
SIDNEY         CLOUDY    71  41  33 SE12      30.31S
WHITECLAY        N/A     71  40  31 E8          N/A
RUSHVILLE        N/A     71  27  19 SE12        N/A
LISCO            N/A     74  39  28 E8          N/A
BIG SPRINGS      N/A     74  47  37 CALM        N/A
$$

...OBSERVATIONS IN NORTH CENTRAL NEBRASKA...

CITY           SKY/WX    TMP DP  RH WIND       PRES   REMARKS
VALENTINE      CLEAR     71  37  28 NE6       30.27S
THEDFORD       CLEAR     70  38  30 NE3       30.28S
AINSWORTH      CLEAR     66  44  44 NE6       30.28S
O`NEILL        CLEAR     66  48  52 N5        30.26S
ORD            CLEAR     68  44  42 NE5       30.25R
BROKEN BOW     CLEAR     72  38  29 NE6       30.26S
SPRINGVIEW       N/A     71  43  36 NE3         N/A
ROSE             N/A     72  48  41 N3          N/A
NEWPORT          N/A     69  44  40 CALM        N/A
COMSTOCK         N/A     76  43  30 NE7         N/A
CHAMBERS         N/A     66  41  40 CALM        N/A
$$

...OBSERVATIONS IN SOUTHWEST NEBRASKA AND FAR NORTHEAST COLORADO...

CITY           SKY/WX    TMP DP  RH WIND       PRES   REMARKS
WRAY           FAIR      72  39  30 SE8       30.29R
HOLYOKE        FAIR      73  43  33 E8        30.29S
IMPERIAL       MOCLDY    73  40  30 S6        30.28S
OGALLALA       PTCLDY    74  44  34 CALM      30.27S
NORTH PLATTE   CLEAR     69  42  37 NE6       30.27S
MCCOOK         CLEAR     72  42  34 E8        30.27R
LEXINGTON      CLEAR     69  41  36 NE6       30.26S
PAXTON           N/A     76  44  31 CALM        N/A
SUTHERLAND       N/A     75  32  21 E5          N/A
BRADY            N/A     71  40  32 CALM        N/A
GOTHENBURG       N/A     75  32  21 NE3         N/A
CALLAWAY         N/A     75  41  30 N7          N/A
$$

...SOME WEATHER OBSERVATIONS FROM AROUND THE REGION...

CITY           SKY/WX    TMP DP  RH WIND       PRES   REMARKS
DENVER         CLOUDY    70  49  47 NW10      30.27S
LARAMIE        CLOUDY    60  46  59 S17       30.39R
CHEYENNE       CLOUDY    66  43  43 SE8       30.34R
SCOTTSBLUFF    MOCLDY    71  42  35 E14       30.27S
RAPID CITY     CLEAR     69  39  33 SE9       30.26R
PIERRE         CLEAR     69  44  40 W6        30.22F
WINNER         FAIR      71  40  32 N5        30.25S
SIOUX FALLS    PTCLDY    64  47  53 N6        30.23R
OMAHA          PTCLDY    67  49  52 N9        30.21S
GRAND ISLAND   CLEAR     69  45  41 N6        30.25S
KANSAS CITY    CLEAR     66  50  56 N7        30.18R
WICHITA        PTCLDY    78  39  24 N13       30.19R
HAYS           CLEAR     73  37  27 E7        30.24R
LIBERAL        CLEAR     79  43  27 E14       30.24R
GOODLAND       MOCLDY    69  45  41 SE5       30.29S
$$



USA.gov is the U.S. government's official web portal to all federal, state and local government web resources and services.